Wind_Speed
27 28 28 29 30 30 31 31 31 31 32 32 33 33 34 33 33 34 34 35 35 35 35 34 35 35 36 36 36 37 37 38 38 39 39 39 39 40 40 40 41 41 41
29 30 30 31 31 32 32 32 33 33 34 34 34 34 34 34 34 35 35 35 36 36 36 36 36 37 37 37 38 38 39 40 40 40 40 41 41 41 41 42 42 42 42
31 31 32 33 33 33 34 34 34 35 35 35 35 35 35 35 35 35 36 36 37 37 37 38 38 38 38 39 39 40 41 41 41 42 42 42 42 42 43 43 43 43 43
33 34 34 34 34 35 35 35 35 36 36 36 36 36 36 36 36 37 37 37 38 38 39 39 39 40 40 41 41 42 42 42 43 43 43 43 44 44 44 44 45 45 45
35 35 35 35 36 36 36 36 37 37 37 37 37 37 37 38 38 38 38 39 39 39 40 40 41 41 42 42 43 43 43 43 44 44 44 44 45 45 45 45 46 46 46
37 37 37 37 37 37 37 37 37 37 37 37 37 38 38 39 39 39 39 40 40 40 40 41 41 42 43 43 44 44 44 44 45 45 45 46 46 46 47 47 47 47 48
38 38 38 38 38 38 38 38 38 38 38 38 38 39 39 39 39 40 40 40 41 41 42 42 43 43 44 44 45 45 45 45 45 46 46 46 47 47 48 48 48 49 49
39 39 39 39 39 39 40 40 40 39 39 39 39 39 39 39 40 41 42 42 42 42 43 43 44 44 45 45 45 45 45 45 46 46 46 46 47 48 48 49 49 49 50
40 39 40 40 40 40 40 41 40 40 39 39 40 40 40 40 40 41 42 42 43 43 43 44 44 45 45 45 45 45 46 46 47 47 47 47 48 48 48 49 49 50 50
40 40 40 41 40 40 41 40 40 39 39 39 40 40 40 41 41 41 42 43 43 44 44 45 46 46 46 45 46 46 46 46 47 47 47 47 48 48 49 49 50 50 51
41 41 41 41 40 41 41 40 40 39 39 40 40 40 40 41 41 42 41 43 44 45 45 46 46 46 46 46 46 47 47 47 47 48 48 48 49 49 50 50 51 51 52
41 41 41 41 40 40 40 40 39 39 39 40 40 40 41 41 42 42 42 43 44 44 45 46 46 46 46 47 47 47 48 48 48 49 49 50 50 51 51 52 52 53 54
40 40 40 40 39 39 39 39 39 39 39 40 41 42 42 42 42 43 43 43 44 44 45 46 46 47 47 48 48 48 49 49 50 50 51 52 52 53 54 55 56 56 57
39 39 38 38 38 39 39 39 39 39 40 41 41 42 42 42 43 44 44 45 44 44 45 45 46 47 48 48 49 49 50 51 51 52 53 55 56 57 58 59 59 60 61
38 38 38 38 38 38 39 39 39 39 40 41 42 42 43 43 44 45 45 46 46 45 45 45 47 48 49 49 50 51 52 54 55 56 57 58 59 60 61 62 63 64 65
37 36 36 37 37 38 39 39 39 39 40 42 43 43 43 44 45 46 47 47 47 47 47 47 48 49 50 51 53 54 55 56 58 59 60 61 63 64 65 66 67 69 70
36 36 36 37 37 37 37 38 39 40 41 42 43 43 44 46 47 48 48 48 48 49 49 49 50 52 53 54 55 57 58 59 60 62 64 65 66 68 69 71 73 74 76
35 35 36 36 37 37 38 39 40 40 41 42 43 44 46 47 47 48 49 49 50 50 51 51 53 54 55 57 58 59 60 62 64 66 67 69 70 72 74 76 77 79 80
34 35 36 36 37 37 38 39 40 41 42 43 44 45 46 47 48 49 50 50 51 53 54 55 55 57 58 59 60 62 64 66 67 69 70 72 73 75 76 78 78 78 79
34 34 35 36 37 38 39 40 40 41 42 44 45 46 47 49 50 50 51 52 54 55 56 57 58 59 61 63 65 66 67 69 70 71 73 74 76 77 77 77 76 76 75
33 34 35 36 37 38 39 39 40 42 43 44 46 47 49 50 51 52 53 54 56 57 59 60 61 63 65 67 69 70 71 71 71 73 75 76 77 76 75 74 72 71 70
33 34 35 36 37 38 39 40 41 43 44 45 47 49 50 52 52 54 55 56 58 60 61 63 65 67 69 71 72 72 73 73 73 74 75 74 73 71 70 68 67 67 65
33 34 36 37 38 39 40 41 42 44 45 47 49 50 52 53 54 55 57 59 61 63 66 68 69 71 73 73 74 74 75 75 75 74 73 70 68 66 64 64 63 62 59
34 35 36 38 39 40 41 42 43 44 46 48 50 52 53 54 56 58 59 61 63 66 68 71 72 73 74 74 75 75 75 74 72 70 69 65 62 61 60 59 57 55 51
35 36 37 38 39 40 41 43 44 46 47 49 51 53 54 56 59 61 63 64 66 68 70 72 73 74 74 75 75 75 73 72 68 66 64 61 58 55 53 51 49 48 45
35 36 38 39 40 41 43 44 45 46 48 50 52 54 57 59 61 63 65 67 69 70 71 72 73 74 74 74 73 72 71 68 65 61 58 55 52 50 45 43 44 42 39
Wind_Direction
288 290 291 292 292 293 294 294 294 293 292 292 292 292 291 290 289 289 288 288 288 287 287 286 286 285 284 284 283 282 282 281 280 279 278 277 276 275 274 273 272 271 269
289 290 291 292 292 293 293 293 293 293 292 291 291 291 290 289 289 288 288 287 287 286 286 286 285 285 284 283 283 283 282 282 281 280 279 278 277 275 274 273 273 272 270
287 289 289 290 292 292 293 293 293 292 292 291 290 290 289 289 288 288 288 287 286 286 286 286 285 284 284 283 283 283 283 282 281 280 280 279 278 276 275 274 273 272 271
287 288 287 289 290 291 291 292 292 291 291 290 290 290 290 289 288 288 288 287 287 287 287 286 286 285 285 285 284 284 283 282 281 281 280 279 278 277 276 275 274 273 272
286 287 287 288 289 290 290 291 291 291 290 289 290 290 290 290 289 289 288 288 287 287 287 287 287 286 286 286 285 285 284 283 282 281 280 279 279 278 277 276 275 274 273
284 285 285 286 288 289 289 289 289 289 289 290 290 290 291 290 290 289 289 288 288 288 288 288 287 287 287 287 286 285 284 283 282 281 280 279 279 278 277 276 275 274 273
283 283 284 285 286 287 288 287 287 287 289 290 290 290 290 290 290 290 290 289 289 289 289 289 288 288 288 287 286 285 285 284 283 282 281 280 280 279 278 277 276 275 274
282 282 283 283 285 286 286 286 286 286 288 290 290 290 290 290 290 291 291 291 290 290 290 290 290 290 289 288 287 286 286 285 284 283 283 282 281 280 279 278 277 276 275
281 281 281 282 283 284 285 286 286 286 288 289 289 289 289 289 291 292 292 292 292 292 292 291 291 291 290 289 288 288 287 287 286 285 284 283 281 280 280 279 277 276 276
280 279 279 280 281 282 283 284 285 285 287 288 289 289 290 290 291 292 292 292 293 293 293 293 292 292 291 290 290 289 289 288 287 286 285 284 283 282 281 280 278 277 276
278 278 279 279 280 282 283 284 285 286 287 288 289 289 290 291 291 292 293 294 295 295 294 294 293 293 292 292 291 291 290 290 289 288 287 286 285 283 282 281 280 279 278
276 277 278 278 280 282 283 284 284 285 287 288 289 290 290 291 292 293 293 294 296 296 295 295 294 294 294 293 293 292 291 291 290 289 289 288 287 285 284 283 282 281 280
276 277 278 279 281 282 283 283 285 286 287 288 290 291 291 292 293 293 294 295 295 296 296 295 295 295 295 294 293 293 292 292 291 290 289 289 288 287 286 285 284 282 281
275 276 277 279 280 282 282 283 284 286 286 288 290 292 293 293 294 295 296 296 295 296 296 295 295 295 295 294 294 293 293 292 291 291 290 290 289 287 286 285 284 283 282
275 275 276 278 280 280 281 282 285 287 288 289 291 293 294 295 295 296 297 297 296 296 296 296 296 296 296 295 294 294 293 293 293 292 291 290 290 288 287 286 285 284 282
274 275 275 277 278 280 282 283 286 287 288 290 292 294 295 296 297 297 297 297 297 297 296 296 297 297 296 296 295 295 294 294 293 293 292 291 290 289 288 287 286 285 283
273 274 275 277 279 281 282 284 286 288 290 291 293 294 295 296 297 297 298 298 298 297 297 297 298 298 297 297 296 296 296 295 295 294 293 292 291 290 289 288 287 286 285
273 274 276 278 280 282 284 285 287 289 290 292 293 294 296 297 297 297 298 298 298 298 298 298 299 298 298 298 297 297 297 296 296 295 294 293 292 291 291 290 289 288 287
274 276 278 279 281 282 284 286 288 290 291 292 293 295 296 296 297 297 298 298 299 299 299 299 299 299 299 298 298 298 298 297 297 296 295 294 293 293 292 291 290 289 288
275 277 278 279 281 283 285 287 288 289 291 292 293 294 295 297 297 298 299 299 300 300 300 300 300 300 299 299 299 299 299 298 297 296 296 295 295 294 293 292 291 290 289
276 277 279 280 282 284 286 287 288 290 291 292 294 295 296 297 298 298 299 300 300 300 300 300 300 300 300 300 299 299 299 298 297 297 296 296 296 295 294 293 292 292 291
277 279 281 282 284 285 286 288 289 291 292 293 295 296 297 298 298 299 300 301 301 301 300 300 301 301 301 300 300 300 299 299 298 297 297 297 296 295 294 294 293 293 292
280 281 282 283 284 286 287 289 290 291 293 294 295 296 298 299 299 300 301 301 301 301 301 302 302 302 301 301 300 300 300 300 300 299 298 297 296 296 295 295 295 294 293
281 282 283 284 286 287 288 290 291 292 294 295 296 298 298 299 299 300 301 301 302 302 302 302 302 302 302 302 301 301 301 300 301 300 299 299 297 297 297 297 296 295 294
282 283 284 286 287 288 289 291 292 294 295 296 297 298 299 299 300 301 302 302 302 302 302 303 303 303 303 302 302 302 302 301 301 301 300 299 299 298 298 297 296 295 295
283 284 286 287 288 290 291 292 293 295 296 297 298 299 300 301 301 302 302 303 303 303 303 304 304 304 303 303 302 302 302 302 302 301 299 300 300 299 299 297 296 295 295
Height
5838 5836 5835 5834 5832 5830 5828 5826 5824 5822 5819 5817 5815 5812 5810 5808 5806 5803 5801 5798 5795 5793 5791 5789 5787 5784 5782 5780 5778 5776 5774 5772 5770 5768 5767 5765 5764 5762 5761 5760 5759 5758 5758
5832 5831 5829 5827 5826 5824 5822 5820 5818 5815 5813 5810 5808 5805 5803 5801 5798 5796 5794 5791 5788 5786 5783 5781 5779 5776 5774 5772 5770 5768 5765 5763 5761 5759 5758 5756 5754 5753 5752 5751 5750 5749 5748
5826 5824 5823 5821 5819 5817 5815 5813 5810 5808 5806 5803 5801 5798 5796 5793 5791 5788 5786 5783 5781 5778 5776 5773 5770 5768 5766 5763 5761 5759 5756 5754 5752 5750 5748 5746 5745 5743 5742 5741 5740 5739 5738
5819 5818 5816 5814 5812 5810 5808 5806 5803 5801 5798 5796 5793 5791 5788 5786 5783 5780 5778 5775 5773 5770 5767 5765 5762 5759 5757 5754 5752 5749 5747 5745 5742 5740 5738 5736 5735 5733 5732 5730 5729 5728 5727
5812 5810 5809 5807 5805 5803 5800 5798 5796 5793 5791 5788 5786 5783 5780 5778 5775 5772 5770 5767 5764 5762 5759 5756 5753 5750 5747 5745 5742 5740 5737 5735 5732 5730 5728 5726 5724 5723 5721 5719 5718 5717 5716
5804 5802 5801 5799 5797 5795 5793 5790 5788 5785 5783 5780 5778 5775 5772 5769 5766 5764 5761 5758 5755 5753 5750 5747 5744 5741 5738 5735 5732 5729 5727 5724 5722 5719 5717 5715 5713 5712 5710 5708 5707 5706 5705
5795 5794 5792 5790 5789 5787 5784 5782 5780 5777 5775 5772 5769 5767 5764 5760 5758 5755 5752 5749 5746 5743 5740 5737 5734 5731 5728 5725 5722 5719 5716 5713 5711 5709 5706 5704 5702 5700 5698 5697 5695 5694 5693
5787 5785 5783 5782 5780 5778 5776 5774 5771 5769 5766 5764 5761 5758 5755 5753 5749 5746 5743 5740 5736 5733 5730 5727 5724 5720 5717 5714 5711 5708 5705 5702 5700 5697 5695 5693 5690 5688 5686 5685 5683 5681 5680
5778 5776 5775 5773 5771 5769 5767 5765 5763 5761 5758 5755 5753 5750 5747 5744 5741 5737 5734 5730 5727 5723 5720 5717 5713 5710 5707 5704 5700 5697 5694 5691 5688 5686 5683 5681 5679 5676 5674 5672 5670 5669 5667
5769 5767 5766 5764 5762 5760 5758 5756 5754 5752 5749 5747 5744 5741 5738 5735 5732 5729 5725 5721 5717 5714 5710 5706 5703 5699 5696 5693 5690 5686 5683 5680 5677 5674 5671 5669 5666 5664 5662 5660 5658 5656 5654
5759 5758 5757 5755 5753 5752 5750 5748 5745 5743 5741 5738 5735 5732 5729 5726 5723 5720 5716 5712 5708 5704 5700 5696 5692 5689 5685 5682 5678 5675 5672 5668 5665 5662 5659 5656 5654 5651 5649 5646 5644 5642 5641
5750 5749 5747 5746 5744 5742 5741 5739 5737 5734 5732 5729 5726 5723 5720 5717 5714 5710 5707 5703 5699 5694 5689 5685 5681 5678 5674 5671 5667 5664 5660 5657 5653 5650 5647 5644 5641 5638 5635 5633 5630 5628 5626
5741 5739 5738 5737 5735 5733 5732 5730 5728 5725 5723 5720 5717 5714 5711 5708 5704 5701 5697 5694 5690 5685 5680 5675 5671 5667 5663 5660 5656 5652 5648 5645 5641 5637 5634 5631 5627 5624 5621 5618 5615 5612 5610
5731 5730 5729 5728 5726 5725 5723 5721 5719 5716 5713 5711 5708 5704 5701 5698 5694 5690 5687 5683 5680 5676 5671 5665 5661 5656 5652 5648 5644 5640 5636 5632 5628 5624 5621 5617 5613 5609 5606 5602 5599 5596 5593
5722 5721 5720 5719 5717 5716 5714 5712 5710 5707 5704 5701 5698 5695 5691 5688 5684 5680 5676 5672 5669 5665 5661 5655 5650 5645 5641 5636 5632 5628 5623 5619 5615 5610 5606 5602 5597 5593 5589 5585 5581 5577 5574
5713 5712 5711 5710 5709 5707 5705 5703 5700 5698 5695 5692 5689 5685 5681 5677 5673 5669 5665 5661 5657 5653 5650 5645 5639 5634 5629 5624 5619 5615 5610 5605 5600 5595 5590 5585 5580 5575 5570 5566 5561 5557 5553
5705 5704 5703 5701 5700 5698 5696 5694 5691 5689 5686 5682 5679 5675 5671 5667 5663 5659 5654 5650 5645 5641 5637 5633 5627 5622 5616 5611 5606 5600 5595 5590 5584 5578 5572 5567 5561 5555 5550 5545 5539 5534 5530
5696 5695 5694 5693 5691 5689 5687 5685 5682 5679 5676 5672 5669 5665 5661 5657 5652 5648 5643 5639 5634 5629 5624 5620 5615 5609 5603 5597 5592 5586 5580 5574 5567 5561 5554 5548 5541 5535 5528 5522 5516 5510 5504
5688 5686 5685 5684 5682 5680 5678 5675 5672 5669 5666 5662 5658 5654 5650 5646 5641 5636 5632 5627 5622 5616 5611 5606 5602 5595 5589 5582 5576 5571 5564 5557 5549 5542 5535 5527 5520 5513 5505 5498 5491 5485 5479
5679 5678 5676 5674 5673 5670 5668 5665 5663 5659 5656 5652 5648 5643 5639 5634 5630 5625 5620 5614 5609 5603 5597 5592 5587 5581 5574 5566 5560 5553 5547 5539 5531 5522 5514 5506 5498 5490 5482 5474 5467 5461 5454
5670 5668 5667 5665 5663 5661 5658 5655 5653 5649 5645 5641 5637 5632 5628 5623 5617 5612 5607 5601 5595 5589 5583 5577 5571 5565 5557 5549 5542 5535 5528 5521 5513 5503 5495 5486 5476 5468 5459 5451 5444 5437 5431
5661 5660 5658 5656 5654 5651 5648 5645 5642 5638 5634 5630 5626 5621 5616 5610 5605 5599 5593 5587 5581 5574 5567 5561 5555 5547 5540 5531 5523 5515 5507 5500 5494 5485 5474 5467 5456 5448 5439 5431 5424 5417 5411
5652 5650 5648 5646 5644 5641 5638 5635 5631 5627 5623 5619 5614 5609 5604 5598 5592 5586 5580 5574 5566 5557 5550 5543 5536 5528 5520 5512 5503 5496 5487 5478 5471 5461 5452 5447 5437 5429 5420 5412 5404 5398 5393
5643 5641 5639 5636 5633 5630 5627 5624 5620 5616 5612 5607 5602 5597 5591 5585 5578 5572 5566 5559 5551 5542 5533 5525 5517 5509 5500 5491 5482 5474 5466 5458 5451 5440 5430 5425 5419 5412 5404 5395 5387 5381 5377
5633 5631 5629 5626 5623 5620 5616 5613 5609 5605 5600 5595 5590 5584 5578 5571 5564 5557 5551 5544 5537 5527 5517 5507 5499 5489 5479 5470 5460 5452 5445 5437 5431 5424 5413 5406 5402 5396 5390 5381 5373 5367 5363
5624 5621 5619 5616 5613 5609 5605 5601 5597 5593 5589 5583 5577 5571 5564 5557 5549 5541 5534 5526 5518 5510 5501 5491 5481 5471 5461 5451 5441 5432 5425 5418 5411 5406 5398 5391 5385 5380 5377 5371 5362 5356 5352